Regional Weather Roundup
Issued by NWS Jackson, KY

Home | Current Version | Previous Version | Text Only | Print | Product List | Glossary Off
Versions: 1 2 3 4 5 6 7 8 9 10 11 12 13 14 15 16 17 18 19 20 21 22 23 24 25 26 27

000
ASUS43 KJKL 210510
RWRJKL

EAST KENTUCKY HOURLY WEATHER ROUNDUP
NATIONAL WEATHER SERVICE JACKSON KY
100 AM EDT THU SEP 21 2017

NOTE: "FAIR" INDICATES FEW OR NO CLOUDS BELOW 12,000 FEET WITH
NO SIGNIFICANT WEATHER AND/OR OBSTRUCTIONS TO VISIBILITY.

* THESE REPORTS ARE NOT UNDER NWS QUALITY CONTROL AND MAY NOT
  REPORT WEATHER SUCH AS PRECIPITATION AND FOG.

KYZ079-080-083-085-087-088-110-112-115-119-120-210600
...EASTERN KENTUCKY...

CITY           SKY/WX    TMP DP  RH WIND       PRES   REMARKS
JACKSON        CLEAR     71  65  81 SE5       30.07F
LONDON         PTCLDY    68  66  93 CALM      30.07F
SOMERSET*      CLEAR     66  66 100 CALM      30.07S FOG
MONTICELLO*    PTCLDY    65  65 100 W6        30.08S FOG
WILLIAMSBURG*  CLEAR     66  66 100 CALM      30.07F
MIDDLESBORO*   CLEAR     64  64 100 CALM      30.09F
HARLAN APT*    CLOUDY    64  63  94 CALM      30.10F
PIKE CO APT*     N/A     68  68 100 S3        30.09S
BIG SANDY APT* CLEAR     68  68 100 CALM      30.07S
MOREHEAD APT*  FOG       68  66  94 CALM      30.07S VSB 3/4
$$

KYZ035-036-041-042-044-050-067-078-099-210600
...CENTRAL KENTUCKY...

CITY           SKY/WX    TMP DP  RH WIND       PRES   REMARKS
MT STERLING*   CLEAR     64  64 100 CALM      30.07S
FLEMING/MASON* CLEAR     70  67  91 S6        30.06S
DANVILLE*      CLEAR     64  64 100 CALM      30.06F
LEXINGTON      CLEAR     71  66  84 SE5       30.05S
FRANKFORT      CLEAR     69  65  86 CALM      30.03S
LOUISVILLE     CLEAR     75  70  84 SE5       30.01R
LEBANON*         N/A     70  68  94 SE7       30.04F
GLASGOW*       CLEAR    N/A N/A N/A CALM      30.04S FOG
BOWLING GREEN  CLEAR     72  71  97 CALM      30.03R
$$

KYZ091>093-OHZ055-061-077-WVZ005-015-034-035-042-210600
...SOUTHERN OHIO/WEST VIRGINIA...

CITY           SKY/WX    TMP DP  RH WIND       PRES   REMARKS
COVINGTON      CLEAR     71  70  96 S5        30.03S
COLUMBUS       CLEAR     69  67  93 CALM      30.03S
DAYTON         CLEAR     68  65  90 CALM      30.05R
WILMINGTON     CLEAR     67  67 100 CALM      30.04S
HUNTINGTON     CLEAR     68  65  90 CALM      30.05R FOG
CHARLESTON     PTCLDY    66  64  93 CALM      30.06S
PINEVILLE*     CLEAR     62  61  95 MISG      30.15S FOG
BECKLEY        CLEAR     60  59  96 S6        30.13S FOG
BLUEFIELD      CLEAR     64  59  83 CALM      30.16F
LOGAN CO APT*    N/A     66  66 100 CALM      30.09S
$$

VAZ002-007-008-TNZ017-027-036-066-071-210600
...SOUTHWEST VIRGINIA/EAST TENNESSEE...

CITY           SKY/WX    TMP DP  RH WIND       PRES   REMARKS
WISE*          CLEAR     64  64 100 CALM      30.16F
JONESVILLE*      N/A     64  63  94 CALM      30.11
ABINGDON*      CLEAR     64  62  92 CALM      30.12F
BRISTOL        CLEAR     62  61  96 CALM      30.10S
MORRISTOWN*    CLEAR     68  64  88 CALM      30.07S
SEVIERVILLE*   CLEAR     64  63  94 CALM      30.07S
KNOXVILLE      CLEAR     69  66  90 CALM      30.06S
LAFOLLETTE*    CLEAR     66  64  94 CALM      30.10F FOG
OAK RIDGE      CLEAR     67  65  93 CALM      30.07F
CROSSVILLE     CLEAR     64  62  93 W3        30.12S
NASHVILLE      CLEAR     74  70  87 S3        30.04S
$$

...KEY TO REMARKS...
VSB - VISIBILITY IN MILES
WCI - WIND CHILL INDEX
HX  - HEAT INDEX

$$




USA.gov is the U.S. government's official web portal to all federal, state and local government web resources and services.